Content
SEND FEEDBACK

Daily
Averages
Monthly
Summary
United States of America

ST. DAVID, ARIZONA


Home > North America > United States > Arizona
Elevation: 3690 feet     Latitude: 31 54N     Longitude: 110 15W

WEATHER
 
SELECT A DAY
Number of Records: 122,106;   Date Range: 1/3/95 - 8/12/14
 
SHARE

PRINT THIS DATA

[ ← Previous Day ]
WEATHER ALMANAC - FEBRUARY 13, 2013
[ Next Day → ]
[ °C ]   °F
Weather ElementAverageHighLow
Temperature40.5 °F53.6 °F (2:55 pm)28.4 °F (5:55 am)
Dewpoint17.2 °F23 °F (1:55 am)8.6 °F (1:55 pm)
Humidity44 %69 % (1:55 am)16 % (2:55 pm)
Barometer30.13 in30.19 in (8:55 am)30.07 in (3:55 pm)
Wind Speed3.7 mph9.2 mph (6:55 am)
Weather ElementAverage
Visibility10 mi
Wind DirectionSE (134.3 °)

Weather ElementTotal
Precipitation---
Heating Degree Days24 (Base 65)
Averaged from 23 records on February 13, 2013
WEATHER CONDITIONS BREAKOUT
WIND DIRECTION BREAKOUT
WEATHER BY HOUR - FEBRUARY 13, 2013
[ °C ]   °F
Local TimeTemperatureDewpointHumidityBarometerVisibilityWind DirectionWind SpeedGust SpeedPrecipitationEventsConditions
1:55 AM32.0 °F23.0 °F69 %30.18 in10.0 miESE (110°)3.5 mphClear
2:55 AM32.0 °F21.2 °F64 %30.16 in10.0 miNorth (350°)3.5 mphClear
3:55 AM30.2 °F21.2 °F69 %30.15 in10.0 miSouth (170°)4.6 mphClear
4:55 AM30.2 °F21.2 °F69 %30.14 in10.0 miCalmClear
5:55 AM28.4 °F19.4 °F69 %30.15 in10.0 miESE (110°)4.6 mphClear
6:55 AM30.2 °F17.6 °F60 %30.15 in10.0 miSSE (160°)9.2 mphClear
7:55 AM30.2 °F19.4 °F64 %30.17 in10.0 miWNW (290°)3.5 mphClear
8:55 AM33.8 °F21.2 °F60 %30.19 in10.0 miCalmClear
9:55 AM39.2 °F19.4 °F45 %30.18 in10.0 miENE (60°)4.6 mphClear
10:55 AM42.8 °F17.6 °F36 %30.17 in10.0 miEast (80°)4.6 mphClear
11:55 AM46.4 °F15.8 °F29 %30.15 in10.0 miENE (60°)4.6 mphClear
12:55 PM48.2 °F15.8 °F27 %30.13 in10.0 miVariable2.3 mphClear
1:55 PM50.0 °F8.6 °F19 %30.10 in10.0 miCalmClear
2:55 PM53.6 °F8.6 °F16 %30.08 in10.0 miCalmClear
3:55 PM53.6 °F10.4 °F18 %30.07 in10.0 miCalmClear
4:55 PM53.6 °F10.4 °F18 %30.07 in10.0 miNorth (360°)4.6 mphClear
5:55 PM53.6 °F10.4 °F18 %30.07 in10.0 miNorth (360°)4.6 mphClear
6:55 PM48.2 °F12.2 °F24 %30.10 in10.0 miCalmClear
7:55 PM42.8 °F19.4 °F39 %30.12 in10.0 miSW (230°)6.9 mphClear
8:55 PM41.0 °F19.4 °F42 %30.14 in10.0 miSW (220°)4.6 mphClear
9:55 PM39.2 °F19.4 °F45 %30.13 in10.0 miSSW (200°)6.9 mphClear
10:55 PM37.4 °F21.2 °F52 %30.13 in10.0 miSouth (170°)5.8 mphClear
11:55 PM35.6 °F23.0 °F60 %30.12 in10.0 miSSE (160°)6.9 mphClear
Hourly data recorded from KFHU, located miles away from St. David, Arizona







STORIES FROM OUR PARTNERS